WMT5151 LGAV-LATI

Flight info

Callsign WMT5151
Flight time 1h 2m
Altitude 38000
Route KOR UL53 IXONI DCT YNN UL604 DIMIS DCT ADDER DCT ELBAK
Aircraft A20N/M-SDE1E2E3FGIJ1J4RWXY/LB1

Departure

Time 2026-05-04 13:02
Airport Athens Eleftherios Venizelos International Airport (LGAV)

Arrival

Time 2026-05-04 14:05
Airport Tirana International Airport Mother Teresa (LATI)
Time Latitude Longitude Altitude Speed Heading
2026-05-04 12:45 37.94187 23.95261 300 ft 0 kts 219°
2026-05-04 12:52 37.94188 23.95261 300 ft 0 kts 219°
2026-05-04 12:53 37.94199 23.95272 301 ft 2 kts 219°
2026-05-04 12:53 37.94212 23.95285 301 ft 2 kts 216°
2026-05-04 12:53 37.94225 23.95296 298 ft 2 kts 210°
2026-05-04 12:53 37.94240 23.95306 296 ft 2 kts 189°
2026-05-04 12:54 37.94255 23.95302 298 ft 2 kts 128°
2026-05-04 12:54 37.94257 23.95298 299 ft 0 kts 126°
2026-05-04 12:56 37.94256 23.95301 298 ft 5 kts 126°
2026-05-04 12:56 37.94217 23.95368 298 ft 12 kts 127°
2026-05-04 12:57 37.94156 23.95466 299 ft 13 kts 127°
2026-05-04 12:57 37.94123 23.95567 301 ft 12 kts 131°
2026-05-04 12:57 37.94057 23.95650 300 ft 13 kts 168°
2026-05-04 12:57 37.93976 23.95590 300 ft 16 kts 217°
2026-05-04 12:58 37.93889 23.95508 298 ft 16 kts 217°
2026-05-04 12:58 37.93788 23.95410 297 ft 21 kts 218°
2026-05-04 12:58 37.93669 23.95293 296 ft 20 kts 217°
2026-05-04 12:58 37.93549 23.95182 292 ft 12 kts 213°
2026-05-04 12:59 37.93475 23.95117 294 ft 15 kts 214°
2026-05-04 12:59 37.93377 23.95024 292 ft 20 kts 218°
2026-05-04 12:59 37.93262 23.94911 290 ft 21 kts 217°
2026-05-04 12:59 37.93148 23.94803 289 ft 8 kts 216°
2026-05-04 13:00 37.93090 23.94748 288 ft 13 kts 217°
2026-05-04 13:00 37.93006 23.94668 288 ft 17 kts 217°
2026-05-04 13:00 37.92898 23.94566 282 ft 17 kts 216°
2026-05-04 13:00 37.92821 23.94491 282 ft 16 kts 218°
2026-05-04 13:01 37.92722 23.94395 281 ft 20 kts 217°
2026-05-04 13:01 37.92614 23.94294 279 ft 16 kts 211°
2026-05-04 13:01 37.92521 23.94347 279 ft 17 kts 130°
2026-05-04 13:01 37.92502 23.94474 279 ft 15 kts 52°
2026-05-04 13:02 37.92662 23.94622 280 ft 60 kts 39°
2026-05-04 13:02 37.93175 23.95109 287 ft 121 kts 37°
2026-05-04 13:02 37.93961 23.95855 453 ft 150 kts 39°
2026-05-04 13:02 37.94806 23.96673 1069 ft 156 kts 38°
2026-05-04 13:03 37.95669 23.97520 1740 ft 161 kts 34°
2026-05-04 13:03 37.96572 23.98452 2307 ft 177 kts 38°
2026-05-04 13:03 37.97536 23.99557 2706 ft 200 kts 37°
2026-05-04 13:03 37.98748 24.00695 3101 ft 231 kts 32°
2026-05-04 13:04 38.00100 24.01968 3891 ft 245 kts 33°
2026-05-04 13:04 38.01472 24.03230 5122 ft 242 kts 32°
2026-05-04 13:04 38.02820 24.04459 6365 ft 237 kts 28°
2026-05-04 13:04 38.04356 24.04912 7349 ft 234 kts 356°
2026-05-04 13:05 38.06048 24.04404 6956 ft 260 kts 330°
2026-05-04 13:05 38.07407 24.02923 6972 ft 258 kts 310°
2026-05-04 13:05 38.08461 24.01079 6969 ft 259 kts 304°
2026-05-04 13:05 38.09426 23.99144 7148 ft 261 kts 303°
2026-05-04 13:06 38.10386 23.97203 7774 ft 267 kts 304°
2026-05-04 13:06 38.11372 23.95239 8993 ft 261 kts 304°
2026-05-04 13:06 38.12385 23.93259 9973 ft 272 kts 306°
2026-05-04 13:06 38.13468 23.91205 10560 ft 292 kts 306°
2026-05-04 13:07 38.14634 23.88980 11043 ft 313 kts 306°
2026-05-04 13:07 38.15903 23.86633 11545 ft 331 kts 307°
2026-05-04 13:07 38.17246 23.84243 12496 ft 333 kts 309°
2026-05-04 13:07 38.18591 23.81831 13504 ft 336 kts 307°
2026-05-04 13:08 38.19919 23.79355 14368 ft 341 kts 307°
2026-05-04 13:08 38.21237 23.76806 15127 ft 348 kts 305°
2026-05-04 13:08 38.22564 23.74209 15902 ft 353 kts 306°
2026-05-04 13:08 38.23916 23.71610 16630 ft 360 kts 306°
2026-05-04 13:09 38.25319 23.68934 17382 ft 365 kts 306°
2026-05-04 13:09 38.26755 23.66221 18034 ft 373 kts 306°
2026-05-04 13:09 38.28207 23.63440 18632 ft 381 kts 306°
2026-05-04 13:09 38.29725 23.60648 19283 ft 384 kts 306°
2026-05-04 13:10 38.31195 23.57839 20264 ft 377 kts 305°
2026-05-04 13:10 38.32620 23.55052 21193 ft 375 kts 305°
2026-05-04 13:10 38.34074 23.52214 21508 ft 389 kts 306°
2026-05-04 13:10 38.35582 23.49326 22206 ft 391 kts 306°
2026-05-04 13:11 38.37102 23.46434 22940 ft 394 kts 306°
2026-05-04 13:11 38.38632 23.43523 23636 ft 396 kts 306°
2026-05-04 13:11 38.40165 23.40600 24279 ft 396 kts 306°
2026-05-04 13:11 38.41688 23.37683 24957 ft 395 kts 306°
2026-05-04 13:12 38.43210 23.34767 25620 ft 394 kts 306°
2026-05-04 13:12 38.44729 23.31854 26229 ft 395 kts 307°
2026-05-04 13:12 38.46250 23.28934 26801 ft 396 kts 307°
2026-05-04 13:12 38.47774 23.26007 27385 ft 396 kts 307°
2026-05-04 13:13 38.49298 23.23076 27989 ft 396 kts 307°
2026-05-04 13:13 38.50802 23.20179 28470 ft 398 kts 307°
2026-05-04 13:13 38.52333 23.17233 28967 ft 399 kts 307°
2026-05-04 13:13 38.53868 23.14273 29467 ft 400 kts 307°
2026-05-04 13:14 38.55407 23.11302 29906 ft 402 kts 307°
2026-05-04 13:14 38.56960 23.08306 30338 ft 404 kts 307°
2026-05-04 13:14 38.58513 23.05306 30682 ft 406 kts 307°
2026-05-04 13:14 38.60073 23.02288 31048 ft 408 kts 307°
2026-05-04 13:15 38.61640 22.99253 31445 ft 409 kts 307°
2026-05-04 13:15 38.63203 22.96224 31928 ft 408 kts 307°
2026-05-04 13:15 38.64763 22.93195 32434 ft 406 kts 307°
2026-05-04 13:15 38.66316 22.90178 32912 ft 405 kts 307°
2026-05-04 13:16 38.67858 22.87181 33399 ft 403 kts 307°
2026-05-04 13:16 38.69377 22.84225 33857 ft 402 kts 307°
2026-05-04 13:16 38.70911 22.81239 34280 ft 400 kts 307°
2026-05-04 13:16 38.72444 22.78253 34571 ft 401 kts 307°
2026-05-04 13:17 38.73978 22.75262 34867 ft 402 kts 307°
2026-05-04 13:17 38.75513 22.72265 35147 ft 403 kts 307°
2026-05-04 13:17 38.76535 22.70268 35332 ft 403 kts 307°
2026-05-04 13:17 38.78074 22.67260 35629 ft 404 kts 307°
2026-05-04 13:18 38.79610 22.64254 35914 ft 404 kts 307°
2026-05-04 13:18 38.81654 22.60250 36283 ft 405 kts 307°
2026-05-04 13:18 38.83195 22.57227 36551 ft 405 kts 306°
2026-05-04 13:18 38.84239 22.55180 36716 ft 406 kts 306°
2026-05-04 13:19 38.85781 22.52151 36981 ft 406 kts 306°
2026-05-04 13:19 38.87306 22.49151 37213 ft 406 kts 306°
2026-05-04 13:19 38.88855 22.46104 37447 ft 407 kts 306°
2026-05-04 13:19 38.90398 22.43063 37689 ft 407 kts 306°
2026-05-04 13:20 38.91952 22.40000 37913 ft 408 kts 306°
2026-05-04 13:20 38.93500 22.36944 38093 ft 409 kts 306°
2026-05-04 13:20 38.95052 22.33879 38111 ft 408 kts 306°
2026-05-04 13:21 38.98129 22.27787 38113 ft 406 kts 306°
2026-05-04 13:21 39.01210 22.21681 38113 ft 407 kts 306°
2026-05-04 13:22 39.04264 22.15614 38106 ft 406 kts 306°
2026-05-04 13:22 39.07342 22.09489 38112 ft 407 kts 306°
2026-05-04 13:23 39.10415 22.03362 38102 ft 407 kts 306°
2026-05-04 13:23 39.13480 21.97238 38099 ft 407 kts 306°
2026-05-04 13:24 39.16542 21.91110 38095 ft 406 kts 306°
2026-05-04 13:24 39.19595 21.84986 38091 ft 406 kts 306°
2026-05-04 13:25 39.24173 21.75783 38091 ft 406 kts 306°
2026-05-04 13:25 39.27202 21.69680 38079 ft 405 kts 306°
2026-05-04 13:26 39.30247 21.63534 38091 ft 408 kts 306°
2026-05-04 13:26 39.33299 21.57358 38100 ft 407 kts 306°
2026-05-04 13:27 39.36345 21.51183 38104 ft 406 kts 306°
2026-05-04 13:27 39.39370 21.45041 38103 ft 408 kts 306°
2026-05-04 13:28 39.42410 21.38852 38092 ft 407 kts 306°
2026-05-04 13:28 39.45449 21.32659 38098 ft 407 kts 306°
2026-05-04 13:29 39.48484 21.26458 38083 ft 407 kts 306°
2026-05-04 13:29 39.51510 21.20267 38093 ft 407 kts 306°
2026-05-04 13:30 39.54542 21.14047 38087 ft 408 kts 306°
2026-05-04 13:30 39.57574 21.07815 38098 ft 409 kts 306°
2026-05-04 13:31 39.60605 21.01576 38090 ft 409 kts 306°
2026-05-04 13:31 39.63620 20.95357 38111 ft 411 kts 305°
2026-05-04 13:32 39.66656 20.89088 38104 ft 409 kts 306°
2026-05-04 13:32 39.70251 20.83457 38075 ft 404 kts 320°
2026-05-04 13:33 39.72432 20.81164 37837 ft 403 kts 326°
2026-05-04 13:33 39.74809 20.79263 37573 ft 400 kts 333°
2026-05-04 13:33 39.77321 20.77708 37297 ft 399 kts 335°
2026-05-04 13:33 39.79843 20.76190 37031 ft 400 kts 335°
2026-05-04 13:34 39.82364 20.74659 36770 ft 399 kts 335°
2026-05-04 13:34 39.84871 20.73133 36504 ft 397 kts 335°
2026-05-04 13:34 39.87374 20.71609 36241 ft 396 kts 335°
2026-05-04 13:34 39.89871 20.70089 35984 ft 396 kts 335°
2026-05-04 13:35 39.92369 20.68567 35729 ft 396 kts 335°
2026-05-04 13:35 39.97364 20.65523 35026 ft 397 kts 335°
2026-05-04 13:35 39.99845 20.64009 34292 ft 400 kts 334°
2026-05-04 13:36 40.02382 20.62460 33353 ft 403 kts 334°
2026-05-04 13:36 40.04915 20.60912 32638 ft 401 kts 334°
2026-05-04 13:36 40.07438 20.59368 31850 ft 400 kts 334°
2026-05-04 13:36 40.09944 20.57801 31158 ft 397 kts 334°
2026-05-04 13:37 40.12402 20.56224 30639 ft 391 kts 334°
2026-05-04 13:37 40.14830 20.54660 30051 ft 386 kts 334°
2026-05-04 13:37 40.17220 20.53122 29453 ft 380 kts 334°
2026-05-04 13:37 40.18779 20.52121 29100 ft 375 kts 334°
2026-05-04 13:38 40.21887 20.50124 28374 ft 368 kts 334°
2026-05-04 13:38 40.24174 20.48657 27835 ft 363 kts 334°
2026-05-04 13:38 40.26428 20.47211 27306 ft 359 kts 334°
2026-05-04 13:38 40.28657 20.45779 26775 ft 355 kts 335°
2026-05-04 13:39 40.30863 20.44361 26255 ft 351 kts 335°
2026-05-04 13:39 40.33047 20.42956 25732 ft 348 kts 335°
2026-05-04 13:39 40.35209 20.41564 25218 ft 345 kts 335°
2026-05-04 13:39 40.37376 20.40168 24696 ft 357 kts 335°
2026-05-04 13:40 40.39675 20.38689 24328 ft 373 kts 335°
2026-05-04 13:40 40.42010 20.37183 23926 ft 376 kts 335°
2026-05-04 13:40 40.44343 20.35675 23120 ft 381 kts 335°
2026-05-04 13:40 40.46744 20.34124 22174 ft 385 kts 335°
2026-05-04 13:41 40.49130 20.32581 21629 ft 378 kts 335°
2026-05-04 13:41 40.51457 20.31073 21179 ft 369 kts 335°
2026-05-04 13:41 40.53737 20.29595 20611 ft 362 kts 335°
2026-05-04 13:42 40.58202 20.26670 19479 ft 354 kts 335°
2026-05-04 13:42 40.60392 20.25234 18924 ft 350 kts 335°
2026-05-04 13:42 40.62577 20.23801 18344 ft 349 kts 335°
2026-05-04 13:42 40.64738 20.22383 17755 ft 345 kts 335°
2026-05-04 13:43 40.66869 20.20985 17210 ft 340 kts 335°
2026-05-04 13:43 40.68977 20.19600 16664 ft 336 kts 335°
2026-05-04 13:43 40.71035 20.18246 16132 ft 333 kts 335°
2026-05-04 13:43 40.73100 20.16889 15591 ft 330 kts 335°
2026-05-04 13:44 40.75148 20.15542 15063 ft 328 kts 335°
2026-05-04 13:44 40.77192 20.14198 14526 ft 327 kts 335°
2026-05-04 13:44 40.79223 20.12860 13993 ft 326 kts 335°
2026-05-04 13:44 40.81248 20.11524 13432 ft 323 kts 335°
2026-05-04 13:45 40.83247 20.10204 12912 ft 320 kts 335°
2026-05-04 13:45 40.85202 20.08798 12382 ft 319 kts 329°
2026-05-04 13:45 40.86966 20.07019 11897 ft 319 kts 320°
2026-05-04 13:45 40.88498 20.04872 11724 ft 331 kts 313°
2026-05-04 13:46 40.89995 20.02514 11520 ft 334 kts 313°
2026-05-04 13:46 40.91482 20.00193 11272 ft 328 kts 313°
2026-05-04 13:46 40.92944 19.97918 11038 ft 329 kts 313°
2026-05-04 13:46 40.94414 19.95625 10920 ft 322 kts 313°
2026-05-04 13:47 40.95852 19.93375 10820 ft 310 kts 313°
2026-05-04 13:47 40.97201 19.91261 10705 ft 298 kts 313°
2026-05-04 13:47 40.98510 19.89207 10526 ft 288 kts 313°
2026-05-04 13:47 40.99801 19.87189 10115 ft 287 kts 313°
2026-05-04 13:48 41.01096 19.85164 9656 ft 287 kts 313°
2026-05-04 13:48 41.02373 19.83162 9384 ft 281 kts 313°
2026-05-04 13:48 41.03624 19.81201 9178 ft 279 kts 313°
2026-05-04 13:48 41.04885 19.79223 8975 ft 281 kts 313°
2026-05-04 13:49 41.06141 19.77246 8780 ft 279 kts 313°
2026-05-04 13:49 41.07389 19.75273 8568 ft 277 kts 312°
2026-05-04 13:49 41.08636 19.73311 8364 ft 280 kts 313°
2026-05-04 13:49 41.09892 19.71341 8174 ft 279 kts 313°
2026-05-04 13:50 41.11141 19.69378 7962 ft 278 kts 313°
2026-05-04 13:50 41.12388 19.67412 7762 ft 277 kts 313°
2026-05-04 13:50 41.13629 19.65449 7560 ft 278 kts 312°
2026-05-04 13:50 41.14868 19.63489 7359 ft 276 kts 312°
2026-05-04 13:51 41.16104 19.61544 7150 ft 276 kts 314°
2026-05-04 13:51 41.17615 19.60028 6969 ft 271 kts 338°
2026-05-04 13:51 41.19422 19.59442 6869 ft 267 kts 356°
2026-05-04 13:51 41.21258 19.59204 6759 ft 268 kts 356°
2026-05-04 13:52 41.24989 19.58714 6544 ft 269 kts 356°
2026-05-04 13:52 41.26842 19.58467 6430 ft 268 kts 356°
2026-05-04 13:52 41.28696 19.58214 6323 ft 268 kts 356°
2026-05-04 13:53 41.30544 19.57958 6205 ft 266 kts 356°
2026-05-04 13:53 41.32388 19.57706 6108 ft 267 kts 356°
2026-05-04 13:53 41.34238 19.57456 5999 ft 268 kts 356°
2026-05-04 13:54 41.37930 19.56950 5767 ft 266 kts 356°
2026-05-04 13:54 41.39772 19.56697 5669 ft 265 kts 356°
2026-05-04 13:54 41.43421 19.56208 5456 ft 267 kts 356°
2026-05-04 13:55 41.45285 19.55954 5351 ft 264 kts 356°
2026-05-04 13:55 41.48914 19.55458 5134 ft 263 kts 356°
2026-05-04 13:55 41.50746 19.55212 5021 ft 263 kts 356°
2026-05-04 13:56 41.52566 19.54966 4930 ft 263 kts 356°
2026-05-04 13:56 41.54391 19.54721 4856 ft 260 kts 356°
2026-05-04 13:56 41.57951 19.54233 4667 ft 251 kts 356°
2026-05-04 13:57 41.59652 19.53998 4575 ft 240 kts 356°
2026-05-04 13:57 41.61268 19.53935 4480 ft 225 kts 11°
2026-05-04 13:58 41.64028 19.57758 4123 ft 193 kts 83°
2026-05-04 13:58 41.64255 19.61155 4004 ft 180 kts 83°
2026-05-04 13:58 41.64386 19.62889 4013 ft 190 kts 82°
2026-05-04 13:59 41.64526 19.64620 3988 ft 184 kts 82°
2026-05-04 13:59 41.64648 19.66339 3990 ft 189 kts 86°
2026-05-04 13:59 41.63084 19.68892 3985 ft 200 kts 162°
2026-05-04 14:00 41.61712 19.69234 3898 ft 201 kts 172°
2026-05-04 14:00 41.58961 19.69592 3386 ft 195 kts 174°
2026-05-04 14:00 41.57619 19.69779 3114 ft 192 kts 174°
2026-05-04 14:01 41.56299 19.69971 2843 ft 187 kts 175°
2026-05-04 14:01 41.55039 19.70136 2589 ft 177 kts 175°
2026-05-04 14:01 41.52740 19.70456 2162 ft 159 kts 176°
2026-05-04 14:02 41.51713 19.70625 2002 ft 145 kts 174°
2026-05-04 14:02 41.50732 19.70839 1777 ft 137 kts 173°
2026-05-04 14:02 41.49805 19.71027 1558 ft 136 kts 178°
2026-05-04 14:02 41.48822 19.71115 1485 ft 144 kts 180°
2026-05-04 14:03 41.47857 19.71218 1298 ft 135 kts 178°
2026-05-04 14:03 41.46938 19.71357 1083 ft 130 kts 176°
2026-05-04 14:03 41.46041 19.71469 910 ft 130 kts 178°
2026-05-04 14:03 41.45139 19.71572 678 ft 131 kts 180°
2026-05-04 14:04 41.43346 19.71816 301 ft 126 kts 179°
2026-05-04 14:04 41.42459 19.71930 123 ft 127 kts 178°
2026-05-04 14:04 41.41714 19.72024 124 ft 80 kts 173°
2026-05-04 14:05 41.41171 19.72098 124 ft 29 kts 173°
2026-05-04 14:05 41.40973 19.72123 129 ft 29 kts 175°
2026-05-04 14:05 41.40777 19.72154 126 ft 28 kts 171°
2026-05-04 14:06 41.40686 19.72110 132 ft 11 kts 263°
2026-05-04 14:06 41.40673 19.72036 128 ft 13 kts 256°
2026-05-04 14:06 41.40649 19.71906 127 ft 15 kts 256°
2026-05-04 14:06 41.40637 19.71771 127 ft 11 kts 303°
2026-05-04 14:07 41.40713 19.71744 130 ft 13 kts 353°
2026-05-04 14:07 41.40819 19.71726 129 ft 17 kts 356°
2026-05-04 14:07 41.40953 19.71716 125 ft 21 kts 354°
2026-05-04 14:07 41.41104 19.71688 125 ft 22 kts 334°
2026-05-04 14:08 41.41200 19.71671 127 ft 15 kts 360°
2026-05-04 14:08 41.41319 19.71669 125 ft 19 kts 355°
2026-05-04 14:08 41.41461 19.71645 122 ft 22 kts 354°
2026-05-04 14:08 41.41626 19.71622 124 ft 24 kts 353°
2026-05-04 14:09 41.41856 19.71595 121 ft 16 kts 351°
2026-05-04 14:09 41.41911 19.71552 122 ft 8 kts 280°
2026-05-04 14:10 41.41911 19.71513 123 ft 0 kts 265°